Time,TemperatureF,DewpointF,PressureIn,WindDirection,WindDirectionDegrees,WindSpeedMPH,WindSpeedGustMPH,Humidity,HourlyPrecipIn,Conditions,Clouds,dailyrainin,SoftwareType,DateUTC
2013-07-06 00:14:00,76.0,65.1,29.86,WSW,247,0.0,12.0,69,0.00,,,-99.99,Weather View 32 v60,2013-07-06 05:14:00,
2013-07-06 00:30:00,76.0,65.1,29.86,SSE,157,0.0,12.0,69,0.00,,,-99.99,Weather View 32 v60,2013-07-06 05:30:00,
2013-07-06 00:44:00,76.0,65.1,29.86,South,180,5.0,11.0,69,0.00,,,-99.99,Weather View 32 v60,2013-07-06 05:44:00,
2013-07-06 01:00:00,76.0,65.1,29.86,NW,315,0.0,10.0,69,0.00,,,-99.99,Weather View 32 v60,2013-07-06 06:00:00,
2013-07-06 01:14:00,75.0,63.7,29.86,SW,225,0.0,10.0,68,0.00,,,-99.99,Weather View 32 v60,2013-07-06 06:14:00,
2013-07-06 01:29:00,75.0,64.1,29.87,SSE,157,0.0,10.0,69,0.00,,,-99.99,Weather View 32 v60,2013-07-06 06:29:00,
2013-07-06 01:45:00,75.0,63.7,29.87,SE,135,0.0,12.0,68,0.00,,,-99.99,Weather View 32 v60,2013-07-06 06:45:00,
2013-07-06 02:00:00,75.0,64.1,29.87,SSW,202,2.0,12.0,69,0.00,,,-99.99,Weather View 32 v60,2013-07-06 07:00:00,
2013-07-06 02:14:00,74.0,63.6,29.87,South,180,0.0,12.0,70,0.00,,,-99.99,Weather View 32 v60,2013-07-06 07:14:00,
2013-07-06 02:30:00,74.0,64.0,29.87,West,270,2.0,12.0,71,0.00,,,-99.99,Weather View 32 v60,2013-07-06 07:30:00,
2013-07-06 02:44:00,74.0,64.0,29.87,ESE,112,1.0,10.0,71,0.00,,,-99.99,Weather View 32 v60,2013-07-06 07:44:00,
2013-07-06 03:00:00,74.0,64.0,29.86,WNW,292,1.0,9.0,71,0.00,,,-99.99,Weather View 32 v60,2013-07-06 08:00:00,
2013-07-06 03:14:00,73.0,63.0,29.86,West,270,0.0,12.0,71,0.00,,,-99.99,Weather View 32 v60,2013-07-06 08:14:00,
2013-07-06 03:20:00,73.0,63.0,29.86,West,270,0.0,12.0,71,0.00,,,-99.99,Weather View 32 v60,2013-07-06 08:20:00,
2013-07-06 03:29:00,73.0,63.0,29.87,WNW,292,1.0,12.0,71,0.00,,,-99.99,Weather View 32 v60,2013-07-06 08:29:00,
2013-07-06 03:45:00,73.0,63.0,29.87,NW,315,1.0,12.0,71,0.00,,,-99.99,Weather View 32 v60,2013-07-06 08:45:00,
2013-07-06 03:59:00,73.0,63.0,29.87,SSE,157,1.0,12.0,71,0.00,,,-99.99,Weather View 32 v60,2013-07-06 08:59:00,
2013-07-06 04:14:00,73.0,62.6,29.87,West,270,6.0,12.0,70,0.00,,,-99.99,Weather View 32 v60,2013-07-06 09:14:00,
2013-07-06 04:20:00,73.0,62.6,29.87,West,270,6.0,12.0,70,0.00,,,-99.99,Weather View 32 v60,2013-07-06 09:20:00,
2013-07-06 04:30:00,73.0,62.6,29.87,SSW,202,0.0,12.0,70,0.00,,,-99.99,Weather View 32 v60,2013-07-06 09:30:00,
2013-07-06 04:44:00,73.0,62.6,29.87,West,270,6.0,12.0,70,0.00,,,-99.99,Weather View 32 v60,2013-07-06 09:44:00,
2013-07-06 04:59:00,73.0,62.2,29.87,SW,225,0.0,12.0,69,0.00,,,-99.99,Weather View 32 v60,2013-07-06 09:59:00,
2013-07-06 05:14:00,73.0,61.8,29.87,South,180,1.0,12.0,68,0.00,,,-99.99,Weather View 32 v60,2013-07-06 10:14:00,
2013-07-06 05:21:00,73.0,61.8,29.87,South,180,1.0,12.0,68,0.00,,,-99.99,Weather View 32 v60,2013-07-06 10:21:00,
2013-07-06 05:30:00,73.0,62.6,29.87,WSW,247,5.0,10.0,70,0.00,,,-99.99,Weather View 32 v60,2013-07-06 10:30:00,
2013-07-06 05:44:00,72.0,62.0,29.87,South,180,0.0,9.0,71,0.00,,,-99.99,Weather View 32 v60,2013-07-06 10:44:00,
2013-07-06 06:00:00,72.0,62.0,29.87,West,270,5.0,13.0,71,0.00,,,-99.99,Weather View 32 v60,2013-07-06 11:00:00,
2013-07-06 06:15:00,72.0,62.0,29.87,West,270,0.0,13.0,71,0.00,,,-99.99,Weather View 32 v60,2013-07-06 11:15:00,
2013-07-06 06:21:00,72.0,62.0,29.87,West,270,0.0,13.0,71,0.00,,,-99.99,Weather View 32 v60,2013-07-06 11:21:00,
2013-07-06 06:29:00,72.0,61.6,29.88,South,180,2.0,13.0,70,0.00,,,-99.99,Weather View 32 v60,2013-07-06 11:29:00,
2013-07-06 06:44:00,72.0,61.6,29.88,West,270,0.0,13.0,70,0.00,,,-99.99,Weather View 32 v60,2013-07-06 11:44:00,
2013-07-06 06:59:00,72.0,61.6,29.88,SSW,202,4.0,12.0,70,0.00,,,-99.99,Weather View 32 v60,2013-07-06 11:59:00,
2013-07-06 07:15:00,72.0,62.0,29.88,SE,135,0.0,12.0,71,0.00,,,-99.99,Weather View 32 v60,2013-07-06 12:15:00,
2013-07-06 07:22:00,72.0,62.0,29.88,SE,135,0.0,12.0,71,0.00,,,-99.99,Weather View 32 v60,2013-07-06 12:22:00,
2013-07-06 07:29:00,72.0,62.4,29.88,WSW,247,0.0,12.0,72,0.00,,,-99.99,Weather View 32 v60,2013-07-06 12:29:00,
2013-07-06 07:44:00,72.0,62.4,29.88,SW,225,0.0,10.0,72,0.00,,,-99.99,Weather View 32 v60,2013-07-06 12:44:00,
2013-07-06 07:59:00,74.0,63.6,29.87,SSW,202,0.0,9.0,70,0.00,,,-99.99,Weather View 32 v60,2013-07-06 12:59:00,
2013-07-06 08:14:00,75.0,63.3,29.87,ESE,112,0.0,7.0,67,0.00,,,-99.99,Weather View 32 v60,2013-07-06 13:14:00,
2013-07-06 08:23:00,75.0,63.3,29.87,ESE,112,0.0,7.0,67,0.00,,,-99.99,Weather View 32 v60,2013-07-06 13:23:00,
2013-07-06 08:29:00,77.0,64.7,29.86,WSW,247,0.0,8.0,66,0.00,,,-99.99,Weather View 32 v60,2013-07-06 13:29:00,
2013-07-06 08:44:00,76.0,63.3,29.86,East,90,0.0,10.0,65,0.00,,,-99.99,Weather View 32 v60,2013-07-06 13:44:00,
2013-07-06 09:00:00,76.0,63.8,29.86,WSW,247,6.0,12.0,66,0.00,,,-99.99,Weather View 32 v60,2013-07-06 14:00:00,
2013-07-06 09:14:00,77.0,63.8,29.85,SSE,157,2.0,12.0,64,0.00,,,-99.99,Weather View 32 v60,2013-07-06 14:14:00,
2013-07-06 09:23:00,77.0,63.8,29.85,SSE,157,2.0,12.0,64,0.00,,,-99.99,Weather View 32 v60,2013-07-06 14:23:00,
2013-07-06 09:29:00,78.0,64.3,29.85,West,270,0.0,12.0,63,0.00,,,-99.99,Weather View 32 v60,2013-07-06 14:29:00,
2013-07-06 09:44:00,78.0,64.3,29.84,South,180,1.0,14.0,63,0.00,,,-99.99,Weather View 32 v60,2013-07-06 14:44:00,
2013-07-06 10:00:00,80.0,64.3,29.83,West,270,6.0,14.0,59,0.00,,,-99.99,Weather View 32 v60,2013-07-06 15:00:00,
2013-07-06 10:14:00,80.0,65.8,29.83,SSW,202,2.0,14.0,62,0.00,,,-99.99,Weather View 32 v60,2013-07-06 15:14:00,
2013-07-06 10:24:00,80.0,65.8,29.83,SSW,202,2.0,14.0,62,0.00,,,-99.99,Weather View 32 v60,2013-07-06 15:24:00,
2013-07-06 10:29:00,81.0,65.3,29.82,East,90,4.0,14.0,59,0.00,,,-99.99,Weather View 32 v60,2013-07-06 15:29:00,
2013-07-06 10:44:00,82.0,65.7,29.81,SSW,202,0.0,13.0,58,0.00,,,-99.99,Weather View 32 v60,2013-07-06 15:44:00,
2013-07-06 11:00:00,83.0,66.1,29.81,WNW,292,5.0,13.0,57,0.00,,,-99.99,Weather View 32 v60,2013-07-06 16:00:00,
2013-07-06 11:15:00,84.0,66.6,29.81,SSE,157,0.0,13.0,56,0.00,,,-99.99,Weather View 32 v60,2013-07-06 16:15:00,
2013-07-06 11:24:00,84.0,66.6,29.81,SSE,157,0.0,13.0,56,0.00,,,-99.99,Weather View 32 v60,2013-07-06 16:24:00,
2013-07-06 11:29:00,84.0,66.0,29.81,SW,225,0.0,15.0,55,0.00,,,-99.99,Weather View 32 v60,2013-07-06 16:29:00,
2013-07-06 11:45:00,85.0,66.4,29.81,NW,315,0.0,15.0,54,0.00,,,-99.99,Weather View 32 v60,2013-07-06 16:45:00,
2013-07-06 12:14:00,87.0,67.7,29.79,SW,225,0.0,15.0,53,0.00,,,-99.99,Weather View 32 v60,2013-07-06 17:14:00,
2013-07-06 12:25:00,87.0,67.7,29.79,SW,225,0.0,15.0,53,0.00,,,-99.99,Weather View 32 v60,2013-07-06 17:25:00,
2013-07-06 12:45:00,87.0,66.6,29.79,SW,225,0.0,14.0,51,0.00,,,-99.99,Weather View 32 v60,2013-07-06 17:45:00,
2013-07-06 13:00:00,86.0,68.4,29.79,SSE,157,3.0,13.0,56,0.00,,,-99.99,Weather View 32 v60,2013-07-06 18:00:00,
2013-07-06 13:15:00,86.0,66.8,29.79,SW,225,5.0,13.0,53,0.00,,,-99.99,Weather View 32 v60,2013-07-06 18:15:00,
2013-07-06 13:26:00,86.0,66.8,29.79,SW,225,5.0,13.0,53,0.00,,,-99.99,Weather View 32 v60,2013-07-06 18:26:00,
2013-07-06 13:44:00,85.0,67.5,29.79,South,180,1.0,13.0,56,0.00,,,-99.99,Weather View 32 v60,2013-07-06 18:44:00,
2013-07-06 14:00:00,85.0,67.5,29.79,East,90,0.0,13.0,56,0.00,,,-99.99,Weather View 32 v60,2013-07-06 19:00:00,
2013-07-06 14:15:00,86.0,67.9,29.79,WSW,247,6.0,13.0,55,0.00,,,-99.99,Weather View 32 v60,2013-07-06 19:15:00,
2013-07-06 14:29:00,88.0,68.1,29.78,SW,225,0.0,15.0,52,0.00,,,-99.99,Weather View 32 v60,2013-07-06 19:29:00,
2013-07-06 14:44:00,89.0,67.3,29.77,NNE,22,0.0,15.0,49,0.00,,,-99.99,Weather View 32 v60,2013-07-06 19:44:00,
2013-07-06 15:00:00,90.0,67.0,29.76,West,270,0.0,15.0,47,0.00,,,-99.99,Weather View 32 v60,2013-07-06 20:00:00,
2013-07-06 15:14:00,91.0,68.5,29.76,East,90,0.0,15.0,48,0.00,,,-99.99,Weather View 32 v60,2013-07-06 20:14:00,
2013-07-06 15:26:00,91.0,68.5,29.76,East,90,0.0,15.0,48,0.00,,,-99.99,Weather View 32 v60,2013-07-06 20:26:00,
2013-07-06 15:45:00,92.0,68.8,29.75,West,270,0.0,14.0,47,0.00,,,-99.99,Weather View 32 v60,2013-07-06 20:45:00,
2013-07-06 16:00:00,91.0,66.6,29.75,SSW,202,0.0,10.0,45,0.00,,,-99.99,Weather View 32 v60,2013-07-06 21:00:00,
2013-07-06 16:14:00,91.0,67.3,29.75,SSW,202,0.0,12.0,46,0.00,,,-99.99,Weather View 32 v60,2013-07-06 21:14:00,
2013-07-06 16:27:00,91.0,67.3,29.75,SSW,202,0.0,12.0,46,0.00,,,-99.99,Weather View 32 v60,2013-07-06 21:27:00,
2013-07-06 17:00:00,90.0,67.0,29.75,ESE,112,11.0,14.0,47,0.00,,,-99.99,Weather View 32 v60,2013-07-06 22:00:00,
2013-07-06 17:14:00,89.0,67.3,29.77,West,270,5.0,15.0,49,0.00,,,-99.99,Weather View 32 v60,2013-07-06 22:14:00,
2013-07-06 17:28:00,89.0,67.3,29.77,West,270,5.0,15.0,49,0.00,,,-99.99,Weather View 32 v60,2013-07-06 22:28:00,
2013-07-06 17:59:00,88.0,68.1,29.76,SW,225,10.0,15.0,52,0.00,,,-99.99,Weather View 32 v60,2013-07-06 22:59:00,
2013-07-06 18:15:00,88.0,67.5,29.76,SSE,157,4.0,15.0,51,0.00,,,-99.99,Weather View 32 v60,2013-07-06 23:15:00,
2013-07-06 18:28:00,88.0,67.5,29.76,SSE,157,4.0,15.0,51,0.00,,,-99.99,Weather View 32 v60,2013-07-06 23:28:00,
2013-07-06 18:45:00,87.0,67.2,29.76,SW,225,7.0,15.0,52,0.00,,,-99.99,Weather View 32 v60,2013-07-06 23:45:00,
2013-07-06 19:00:00,87.0,67.2,29.76,WSW,247,6.0,16.0,52,0.00,,,-99.99,Weather View 32 v60,2013-07-07 00:00:00,
2013-07-06 19:14:00,86.0,66.8,29.77,SW,225,3.0,19.0,53,0.00,,,-99.99,Weather View 32 v60,2013-07-07 00:14:00,
2013-07-06 19:29:00,86.0,66.8,29.77,SW,225,3.0,19.0,53,0.00,,,-99.99,Weather View 32 v60,2013-07-07 00:29:00,
2013-07-06 19:59:00,84.0,67.1,29.78,NW,315,2.0,19.0,57,0.00,,,-99.99,Weather View 32 v60,2013-07-07 00:59:00,
2013-07-06 20:30:00,84.0,66.6,29.78,SSW,202,0.0,12.0,56,0.00,,,-99.99,Weather View 32 v60,2013-07-07 01:30:00,
2013-07-06 20:45:00,83.0,67.1,29.79,NE,45,0.0,12.0,59,0.00,,,-99.99,Weather View 32 v60,2013-07-07 01:45:00,
2013-07-06 20:59:00,82.0,66.7,29.81,SE,135,0.0,12.0,60,0.00,,,-99.99,Weather View 32 v60,2013-07-07 01:59:00,
2013-07-06 21:15:00,81.0,66.7,29.81,ESE,112,2.0,10.0,62,0.00,,,-99.99,Weather View 32 v60,2013-07-07 02:15:00,
2013-07-06 21:30:00,81.0,66.7,29.81,South,180,1.0,10.0,62,0.00,,,-99.99,Weather View 32 v60,2013-07-07 02:30:00,
2013-07-06 21:44:00,80.0,66.7,29.83,SW,225,0.0,10.0,64,0.00,,,-99.99,Weather View 32 v60,2013-07-07 02:44:00,
2013-07-06 21:59:00,79.0,66.6,29.83,SW,225,3.0,12.0,66,0.00,,,-99.99,Weather View 32 v60,2013-07-07 02:59:00,
2013-07-06 22:14:00,79.0,67.1,29.83,West,270,0.0,12.0,67,0.00,,,-99.99,Weather View 32 v60,2013-07-07 03:14:00,
2013-07-06 22:30:00,78.0,66.1,29.85,NW,315,0.0,12.0,67,0.00,,,-99.99,Weather View 32 v60,2013-07-07 03:30:00,
2013-07-06 22:44:00,78.0,67.0,29.85,NNW,337,0.0,12.0,69,0.00,,,-99.99,Weather View 32 v60,2013-07-07 03:44:00,
2013-07-06 22:59:00,77.0,66.4,29.85,WSW,247,4.0,11.0,70,0.00,,,-99.99,Weather View 32 v60,2013-07-07 03:59:00,
2013-07-06 23:14:00,77.0,67.2,29.85,South,180,4.0,11.0,72,0.00,,,-99.99,Weather View 32 v60,2013-07-07 04:14:00,
2013-07-06 23:29:00,76.0,66.3,29.85,SW,225,3.0,11.0,72,0.00,,,-99.99,Weather View 32 v60,2013-07-07 04:29:00,
2013-07-06 23:31:00,76.0,66.3,29.85,SW,225,3.0,11.0,72,0.00,,,-99.99,Weather View 32 v60,2013-07-07 04:31:00,
2013-07-06 23:44:00,76.0,67.1,29.86,SE,135,2.0,12.0,74,0.00,,,-99.99,Weather View 32 v60,2013-07-07 04:44:00,
2013-07-06 23:59:00,76.0,67.1,29.87,ESE,112,0.0,12.0,74,0.00,,,-99.99,Weather View 32 v60,2013-07-07 04:59:00,